Vorticity
nan nan nan nan nan nan nan nan nan nan nan nan nan nan nan nan nan nan nan nan nan nan nan nan nan nan nan nan nan nan nan nan nan nan nan nan nan nan nan nan nan nan nan
nan 8 5 6 4 1 5 6 3 3 2 3 3 4 4 4 5 5 6 5 6 6 6 6 6 6 6 8 6 4 5 4 4 2 1 1 2 4 4 5 5 6 nan
nan 6 7 4 3 5 7 4 4 3 2 2 4 4 4 4 4 5 6 6 5 5 6 6 8 7 4 6 6 6 4 3 4 0 0 1 4 5 4 5 5 5 nan
nan 7 7 5 4 8 7 1 4 3 5 6 5 4 5 5 4 6 6 5 5 4 4 5 7 6 8 7 4 4 3 3 2 4 6 6 5 5 6 4 5 4 nan
nan 12 9 6 4 5 4 4 3 4 4 6 6 5 6 5 4 7 5 3 3 4 4 4 5 5 9 8 5 4 2 3 4 12 9 7 4 5 7 6 4 4 nan
nan 7 6 6 3 4 6 5 5 4 5 5 5 6 6 5 5 6 5 4 4 4 4 3 4 6 9 9 6 3 3 3 7 11 7 6 6 6 4 6 5 5 nan
nan 7 5 5 5 4 4 4 3 5 6 5 5 6 6 5 5 5 5 5 5 5 4 4 4 8 8 9 10 4 3 5 9 8 7 4 7 6 5 5 5 5 nan
nan 8 8 5 3 3 5 4 4 6 6 5 4 4 5 5 4 4 5 5 5 5 4 5 6 8 9 10 9 4 3 4 9 9 8 6 10 6 5 5 6 6 nan
nan 5 8 7 7 6 4 3 4 7 7 5 4 4 4 5 4 4 4 5 5 5 5 6 6 5 6 12 10 4 3 4 8 9 7 7 9 8 10 9 8 6 nan
nan 5 11 13 8 7 8 9 5 4 5 5 5 5 5 6 7 5 6 7 4 4 5 5 6 4 4 7 8 4 4 7 7 8 8 11 6 5 8 9 11 11 nan
nan 6 7 11 11 5 14 16 8 7 7 8 8 8 7 6 13 12 11 6 3 4 5 5 6 5 4 7 9 6 4 6 8 8 10 12 4 3 3 3 6 9 nan
nan 6 8 8 7 10 14 8 6 7 9 8 10 13 9 10 11 12 10 5 5 4 7 7 8 9 7 9 11 8 5 7 7 8 10 9 6 4 4 4 5 5 nan
nan 7 7 9 9 10 10 8 7 8 8 7 8 11 9 10 10 9 6 7 10 10 8 10 9 9 9 7 7 9 6 7 8 9 9 7 5 4 4 4 5 6 nan
nan 7 8 10 10 11 10 6 7 8 8 7 6 8 10 8 8 7 9 12 9 9 8 7 9 8 6 4 5 7 8 8 6 10 13 10 4 4 3 4 5 6 nan
nan 7 7 9 10 9 9 10 9 7 6 7 7 7 8 9 7 8 8 8 9 11 9 7 7 9 9 9 7 6 6 8 7 7 14 11 6 6 5 4 6 5 nan
nan 7 7 8 8 8 7 9 8 7 10 9 8 7 8 7 7 7 7 8 8 6 7 9 11 11 9 9 8 8 7 7 9 8 8 10 10 6 6 5 5 6 nan
nan 5 7 7 7 8 8 8 8 7 7 7 7 7 8 8 9 10 9 7 6 6 7 8 8 8 9 9 10 10 10 8 6 9 8 8 11 11 8 8 6 6 nan
nan 7 6 6 7 7 8 9 8 7 8 8 8 6 5 8 8 9 10 10 9 7 6 7 8 9 9 9 9 9 9 10 9 8 6 7 8 12 14 11 8 6 nan
nan 6 6 7 7 8 8 9 7 8 9 8 7 5 4 8 8 9 8 7 9 11 9 7 7 7 6 9 9 8 8 9 10 9 9 9 7 7 13 16 11 10 nan
nan 8 6 6 6 8 9 7 8 7 7 8 7 5 6 7 6 8 8 7 8 8 9 10 8 6 8 7 7 10 11 9 9 9 9 9 9 7 8 11 12 16 nan
nan 3 6 7 7 8 8 7 7 7 8 6 6 6 8 7 6 7 8 8 8 8 8 8 10 8 7 8 11 12 9 9 9 10 9 8 9 9 6 6 9 10 nan
nan 6 6 5 6 8 8 9 8 8 8 8 7 8 8 7 9 7 7 8 8 7 8 9 9 9 10 8 8 10 11 13 12 9 8 9 8 9 10 7 6 7 nan
nan 5 6 5 8 7 8 9 7 8 8 9 9 9 8 7 9 9 8 7 8 9 9 8 8 9 10 10 9 5 8 9 10 15 13 11 9 6 10 10 7 6 nan
nan 11 10 4 6 7 8 8 9 9 8 8 8 7 7 8 8 9 9 7 9 8 8 8 8 8 8 9 11 10 8 7 4 6 8 5 12 16 9 9 11 9 nan
nan 10 6 9 7 7 8 8 9 7 8 7 6 6 10 11 11 8 9 10 10 9 9 7 7 9 8 8 9 8 10 9 9 7 3 3 6 8 11 12 11 8 nan
nan nan nan nan nan nan nan nan nan nan nan nan nan nan nan nan nan nan nan nan nan nan nan nan nan nan nan nan nan nan nan nan nan nan nan nan nan nan nan nan nan nan nan
CAPE
744 747 1759 1277 1908 1062 1244 1174 1296 1102 808 462 353 990 1131 714 803 1222 1165 1327 1355 1489 1188 1326 1229 1549 1347 1440 1647 1570 1734 1784 1340 1344 1311 1580 1541 1056 731 667 365 84 21
368 591 1813 1373 2054 1407 1383 1107 1160 899 391 196 170 368 737 634 801 1015 1014 1071 1381 1351 983 1192 1005 939 1340 1649 1640 1705 1773 1433 1139 1278 1417 1384 1569 1286 884 601 584 153 28
132 656 1156 1632 1211 923 1395 879 492 725 304 109 68 239 154 469 292 614 882 1171 1101 1415 1302 1312 1586 1402 1411 1507 1693 1487 1457 1463 1365 1287 1413 875 1144 1170 1106 752 497 343 87
229 130 737 1532 1395 1277 1337 1244 659 234 637 403 176 320 47 131 161 514 430 901 1077 1069 1190 1395 1460 1524 1529 1607 1480 1473 1321 970 867 1014 1090 969 871 1147 1045 899 861 485 164
25 803 1076 1665 1032 922 893 600 284 169 672 672 428 135 2 68 98 457 307 414 554 592 811 1025 1245 1420 1380 1583 1487 1383 1194 1056 1369 1264 883 820 757 933 1178 1082 742 532 283
203 1005 1782 1517 961 984 580 393 345 356 620 520 231 1 17 96 16 239 195 172 105 311 324 603 878 1135 1414 1327 1362 1284 1175 1126 1492 560 885 1173 814 972 936 1003 799 646 390
342 528 985 1438 975 690 684 512 386 157 758 402 35 0 0 9 3 5 52 92 117 43 132 215 600 1397 1086 1173 1452 1376 1188 1275 1086 36 586 630 755 952 839 909 965 713 595
0 485 523 1623 1585 1302 1002 650 303 407 731 355 43 0 0 0 0 0 0 1 6 24 6 7 262 825 1246 1148 1655 1395 1163 1151 574 91 79 378 936 708 692 662 686 824 617
0 22 561 655 1453 2270 1924 1462 827 741 994 485 141 83 4 0 0 0 0 0 0 0 0 0 7 433 768 1302 1407 1445 943 806 267 125 207 695 1382 894 706 619 548 676 837
187 67 27 1164 1166 1261 1405 2125 1823 1085 1103 826 536 330 196 57 1 0 0 0 0 0 0 0 0 4 91 335 1503 1119 611 475 22 59 41 423 939 580 1031 924 814 785 759
0 0 0 0 42 568 1013 1638 1411 1620 1456 1640 1173 1089 724 64 0 0 18 0 0 0 0 0 0 0 0 0 583 1052 731 254 307 111 4 667 404 127 264 416 527 849 812
0 0 0 0 0 0 1040 1230 1105 1290 1106 1124 790 690 461 254 10 0 0 0 0 0 0 0 0 0 0 0 0 813 63 0 24 55 5 382 81 26 0 0 133 375 624
0 0 0 0 0 0 160 1338 1191 993 988 1047 1178 874 650 698 165 0 0 0 0 0 0 0 0 0 0 0 0 94 0 0 0 0 83 352 83 7 0 0 0 123 322
0 0 0 0 0 0 136 477 413 394 519 498 452 458 282 370 607 584 212 4 0 0 0 0 0 0 0 0 0 0 0 0 0 0 12 465 238 60 5 0 0 0 171
0 0 0 0 0 0 0 0 36 237 162 156 57 7 0 3 59 87 119 295 206 0 0 0 0 0 0 0 0 0 0 0 0 0 0 416 242 59 4 0 0 0 0
0 0 0 0 0 0 0 0 0 0 0 0 0 0 0 0 0 0 0 0 14 41 4 1 0 0 0 0 0 0 0 0 0 0 0 5 192 16 0 0 0 0 0
0 0 0 0 0 0 0 0 0 0 0 0 0 0 0 0 0 0 0 0 0 0 0 0 0 0 0 0 0 0 0 0 0 0 0 0 0 0 0 0 0 0 0
0 0 0 0 0 0 0 0 0 0 0 0 0 0 0 0 0 0 0 0 7 9 0 0 0 0 0 0 0 0 0 0 0 0 0 0 0 0 0 0 0 0 0
0 0 0 0 0 0 0 0 0 0 0 0 0 0 0 0 0 0 0 0 0 0 15 7 4 0 1 0 0 0 0 0 0 0 0 0 0 0 0 0 0 0 0
0 0 0 0 0 0 0 0 0 0 0 0 0 0 0 0 0 0 0 0 0 0 0 6 12 0 0 0 0 0 0 0 0 0 0 0 0 0 0 0 0 0 0
0 0 0 0 0 0 0 0 0 0 0 0 0 0 0 0 0 0 0 0 0 0 0 0 0 0 0 0 0 2 0 0 0 0 0 0 0 0 0 0 0 0 0
0 0 0 0 0 0 0 0 0 0 0 0 0 0 0 0 0 0 0 0 0 0 0 0 0 0 0 5 0 4 0 0 0 0 0 0 0 0 0 0 0 0 0
0 0 0 0 0 0 0 0 0 0 0 0 0 0 0 0 0 0 0 0 0 0 0 0 0 0 0 0 36 9 15 0 0 0 0 0 0 0 0 0 0 0 0
0 0 0 0 0 0 0 0 0 0 0 0 0 0 0 0 0 0 0 0 0 0 0 0 0 0 0 0 12 39 11 0 0 0 0 0 0 0 0 0 0 0 0
0 0 0 0 0 0 0 0 0 0 0 0 0 0 0 0 0 0 0 0 0 0 0 0 0 0 0 0 0 1 46 24 0 11 0 0 0 0 0 0 0 0 0
0 0 0 0 0 0 0 0 0 0 0 0 0 0 0 0 0 0 0 0 0 0 0 0 0 0 0 0 0 0 6 65 18 0 0 0 0 0 0 0 0 0 0